Regional Weather Roundup
Issued by NWS Upton, NY

Current Version | Previous Version | Text Only | Print | Product List | Glossary Off
Versions: 1 2 3 4 5 6 7 8 9 10 11 12 13 14 15 16 17 18 19 20 21 22 23 24 25 26 27
000 ASUS41 KOKX 241209 RWROKX REGIONAL WEATHER ROUNDUP NATIONAL WEATHER SERVICE NEW YORK NY 800 AM EDT SUN SEP 24 2017 NOTE: "FAIR" INDICATES FEW OR NO CLOUDS BELOW 12,000 FEET WITH NO SIGNIFICANT WEATHER AND/OR OBSTRUCTIONS TO VISIBILITY. NYZ071-072-176-178-NJZ106-104-241300- NEW YORK CITY METRO AREA CITY SKY/WX TMP DP RH WIND PRES REMARKS Central Park SUNNY 71 62 73 CALM 30.11R Bronx Bot Gard N/A 72 59 64 E2 30.08F LaGuardia APRT SUNNY 73 61 65 N3 30.07R Kennedy INTL SUNNY 73 60 63 N8 30.08R Breezy Point N/A 72 N/A N/A CALM N/A Newark/Liberty SUNNY 72 60 66 CALM 30.08R Teterboro SUNNY 69 60 73 CALM 30.08R $$ NYZ177-179-078>081-241300- LONG ISLAND NEW YORK CITY SKY/WX TMP DP RH WIND PRES REMARKS Jones Beach N/A 68 N/A N/A N3 N/A Matinecock PT N/A 72 N/A N/A E5 N/A Farmingdale SUNNY 70 61 73 N9 30.07R MacArthur/ISP SUNNY 69 65 86 N6 30.07R Shirley SUNNY 69 65 86 N6 30.07R Mt Sinai Harb N/A N/A N/A N/A NW2 N/A Westhampton SUNNY 68 64 87 N6 30.08R East Hampton FOG 65 64 99 N5 30.06S VSB 3/4 Montauk N/A 68 66 93 N3 30.07R $$ NYZ052-065-067-241300- HUDSON VALLEY CITY SKY/WX TMP DP RH WIND PRES REMARKS White Plains SUNNY 73 60 63 N9 30.09R Larchmont Harb N/A 70 N/A N/A MISG N/A Croton On Huds N/A 70 N/A N/A MISG N/A Newburgh SUNNY 63 63 100 W5 30.13R Montgomery SUNNY 61 59 93 CALM 30.12R Poughkeepsie SUNNY 60 56 86 CALM 30.11R Albany SUNNY 63 60 90 CALM 30.12R $$ NJZ001-105-106-008-010-013-015-019>022-104-241300- NEW JERSEY CITY SKY/WX TMP DP RH WIND PRES REMARKS Newark/Liberty SUNNY 72 60 66 CALM 30.08R Teterboro SUNNY 69 60 73 CALM 30.08R Caldwell SUNNY 65 62 90 CALM 30.10R Somerville NOT AVBL Linden NOT AVBL Perth Amboy N/A 66 N/A N/A W5 N/A Sussex SUNNY 60 60 100 CALM 30.13R Andover N/A 61 60 97 CALM 30.13R Trenton SUNNY 70 62 76 NW8 30.09R Millville SUNNY 69 64 84 CALM 30.08R Atlantic City SUNNY 66 61 84 N3 30.07S Wrightstown SUNNY 67 62 83 CALM 30.06R Toms River SUNNY 66 60 81 N7 30.08S Belmar SUNNY 67 59 75 NW5 30.09R $$ PAZ047>061-062-071-241300- EASTERN PENNSYLVANIA CITY SKY/WX TMP DP RH WIND PRES REMARKS Philadelphia SUNNY 72 62 71 N6 30.09R Allentown SUNNY 65 61 87 CALM 30.12R Scranton SUNNY 63 61 93 CALM 30.17R $$ CTZ002-004>006-009-010-012-RIZ004-006-007-MAZ004-011-015-241300- SOUTHERN NEW ENGLAND IN CT CITY SKY/WX TMP DP RH WIND PRES REMARKS Bradley INTL SUNNY 67 61 81 CALM 30.09S Hartford SUNNY 63 60 90 CALM 30.09R Danbury SUNNY 63 60 90 CALM 30.11R Wtrbury/Oxford SUNNY 69 62 78 N8 30.11R Norwalk Harbor N/A 66 N/A N/A N2 N/A Bridgeport SUNNY 69 62 78 CALM 30.08R Meriden SUNNY 64 60 87 CALM 30.09R New Haven SUNNY 68 60 75 N10 30.07R Chester FAIR 70 61 73 N5 30.08S Groton SUNNY 65 61 87 N5 30.06S Wilimantic SUNNY 62 60 93 CALM 30.09R IN RI CITY SKY/WX TMP DP RH WIND PRES REMARKS Providence SUNNY 64 63 96 CALM 30.08R Block Island SUNNY 66 64 93 N5 30.07R Westerly SUNNY 64 61 90 N3 30.07R IN MA CITY SKY/WX TMP DP RH WIND PRES REMARKS Boston MOSUNNY 69 63 81 NW5 30.07S Worcester SUNNY 74 60 61 N6 30.11R Westfield SUNNY 63 62 97 CALM 30.09S Provincetown PTSUNNY 63 62 97 NE3 30.07R FOG Nantucket FOG 61 61 100 N10 30.05R VSB 1/2 $$ ANZ330-335-338-340-345-350-353-355-241300- COASTAL MARINE OBSERVATIONS STATION/POSITION TIME SKY/WX TEMP WIND PRES VSBY WAVE AIR SEA DIR/SP/G HT/PER (UTC) (F) (DEG/KT/KT) (MB) (MI) (FT/S) NY HARB ENTRANCE 1050 70 71 340/ 4/ 6 1017.2 3/11 20 S FIRE ISLAND 1050 67 66 360/ 4/ 6 1017.6 4/12 GREAT SOUTH BAY 1130 66 70 320/ 2/ 4 N/A 23 SSW MONTAUK P 1050 64 63 1017.8 4/14 15 E BARNEGAT LI 1130 69 N/A 4/13 HUDSON CANYON 1050 68 68 20/ 8/ 10 1016.6 6/13 KINGS POINT 1130 67 71 200/ 1/ 2 1019.1 EXECUTION ROCKS 1145 72 150/ 2/ 2 N/A WESTERN LI SOUND NOT AVBL CENTRAL LI SOUND 1130 69 330/ 6/ 8 N/A 0 EASTERN LI SOUND NOT AVBL ROBBINS REEF 1142 71 320/ 7/ 8 1019.1 $$ >>>>>>>>>>>>>>>>>>>>>>>>>>>> KEY <<<<<<<<<<<<<<<<<<<<<<<<<<< > < > SKY/WX - Sky Condition/Present Weather < > TMP - Temperature in Fahrenheit < > DP - Dew Point in Fahrenheit < > RH - Relative Humidity in Percent < > WIND - Direction (from) and Speed in MPH < > PRES - Mean Sea Level Pressure (inches of Hg) < > WCI - Wind Chill Index < > VSB - VISIBILITY IN MILES < > HX - HEAT INDEX < > TC - TEMPERATURE IN CELSIUS < > VRB - VARIABLE WIND DIRECTION < > < >>>>>>>>>>>>>>>>>>>>>>>>>>>> KEY <<<<<<<<<<<<<<<<<<<<<<<<<<<

USA.gov is the U.S. government's official web portal to all federal, state and local government web resources and services.